Погода в Киришах

Россия / Санкт-Петербург и Ленинградская область     59°26′58″N   32°00′31″E
темп.,
°C
ветер,
м/с
пор.,
м/с
влажн.,
%
обл.,
%
осадки,
мм/ч
давл.,
гПа
погр.,
м
23 октября, сб
сб2300:00+6юз81668100 0.0 9881416
03:00+5юз6137783 0.0 9891059
06:00+4юз51180100 0.0 9901019
09:00+4юз4983100 0.0 993857
12:00+4юз3895100 0.1 996797
15:00+4юз2597100 0.9 999823
18:00+4сз249089 0.6 1002496
21:00+3с4996100 1.0 1005514
24 октября, вс
вс2400:00+3ссз4888100 0.2 1008800
03:00+2ссз498597 0.3 1011849
06:00+1ссз388745 0.1 1014382
09:00+1сз3896100 0.4 1017443
12:00+3сз477266 0.5 10201220
15:00+3ссз476626 0.7 10221265
18:000зсз258432 0.0 1024139
21:00−1з238497 0.0 102567
25 октября, пн
пн2500:000юз258499 0.0 1025162
03:000ююз3982100 0.0 1024328
06:000ю51389100 0.1 1021557
09:00+2ююз51391100 2.0 1019625
12:00+4юз61593100 0.9 1017678
15:00+6юз61388100 1.4 10161016
18:00+6юз51386100 0.1 1016806
21:00+6юз51384100 0.1 1015675
26 октября, вт
вт2600:00+5юз5128991 0.0 1016603
03:00+3юз41292100 0.0 1015431
06:00+2юз41093100 0.0 1015373
09:00+2ююз3994100 0.0 1014358
12:00+4юз4885100 0.0 1014520
15:00+5юз3781100 0.0 1013715
18:00+4ююз3888100 0.0 1012417
21:00+4ююз31089100 0.0 1011412
27 октября, ср
ср2700:00+4ююз41091100 0.4 1009409
03:00+4ююз41094100 1.5 1007423
06:00+5юз3998100 3.4 1006415
09:00+7зюз41090100 4.4 1006672
12:00+7зюз498690 0.3 1007970
15:00+7зюз4118684 0.4 10071023
18:00+6зсз51286100 0.4 10081320
21:00+6зсз51184100 0.6 1010721